FENGYUN 1C DEB, 29795

Orbit data source: Space-Track

FENGYUN 1C DEB, 29795 is space debris in SSO originally from a launch on Mon, 10 May 1999 UTC launched from the Taiyaun Space Center, China (TSC). Fengyun 1C debris stems from the Chinese weather satellite Fengyun-1C, which was intentionally destroyed by a Chinese anti-satellite missile in 2007. This event dramatically increased the amount of space debris, with thousands of trackable fragments posing hazards to satellites and human spaceflight. The Fengyun 1C debris cloud has become a focal point in discussions about space sustainability and the need for international regulations to prevent the creation of new debris.

Loading next visibility...
Identifier
29795, 1999-025CM
Orbit
SSO
Country
Flag of CNCN / PRC
Related business
Manufacturer
Unknown
Mission
Spacecraft
Bus & Motor
Unknown
Mass
Unknown
Launch date (UTC)
1999-05-10 (27 years ago)
Launch vehicle
Unknown
Launch site
Taiyaun Space Center, China (TSC)
Object type
Payload
Rocket body
Debris
Shape & HBR
Unknown shape, 0.1 m
Radar Cross Section
Small (<0.1 m²)

Expand to show TLE details & history
Last TLE update: 1 day ago

TLE from 1 day ago
0 FENGYUN 1C DEB
1 29795U 99025CM  26206.28355912  .00000160  00000-0  14771-3 0  9998
2 29795  98.8995 331.6868 0112033  21.3999  43.2876 13.93007199991911
Epoch: 2026-07-25T06:48Z
TLE epoch observation values (Epoch: 2026-07-25T06:48:19.507Z)
Latitude
64.18961°
Longitude
-92.17995°
Altitude
870.047 km
Speed
7.453 km/s
True Right ascension
20h 51m 35s
True Declination
64° 03' 24"
Sunlit
Object was in daylight at epoch
Visualization orbit readout
Latitude
Unknown
Longitude
Unknown
Altitude
Unknown
Speed
Unknown
Apparent Right ascension
Unknown
Apparent Declination
Unknown
Sunlit
N/A
Visualization observer readout
Local Sidereal Time
00:10:22
Azimuth
Unknown
Elevation
Unknown
Doppler factor
Unknown
Orbital elements
Apogee altitude
997.025 km
Perigee altitude
833.604 km
Semi-major axis
7,293.452 km
Eccentricity
0.0112
Inclination
98.8995°
RAAN
331.6868°
Arg. of periapsis
21.3999°
True anomaly
44.17688°
Mean anomaly
43.2876°
Eccentric anomaly
43.73133°
Mean motion
3.48452 °/min
Orbital period
103.31 mins
BSTAR
0.00014771
Loading maneuver chart data...
Computing Atmospheric mass density...

Documentation

Showing up to 5 results
|